Tracking 19280 objects as of 14-Nov-2018
HD Live streaming from Space Station
objects crossing your sky now

NIMBUS 2


NIMBUS 2 is no longer on orbit


NORAD ID: 2173
Int'l Code: 1966-040A
Perigee: N/A
Apogee: N/A
Inclination: N/A
Period: N/A
Semi major axis: N/A
RCS: N/A
Launch date: May 15, 1966
Source: United States (US)
Launch site: AIR FORCE WESTERN TEST RANGE (AFWTR)
Decay date: 1969-01-17
aabbcc
Your satellite tracking list
Your tracking list is empty




NASA's NSSDC Master Catalog

Two Line Element Set (TLE):
1  2173U 66040A   18317.93241109 -.00000014 +00000-0 +65905-4 0  9993
2  2173 100.3556 069.2980 0054875 316.8794 153.1542 13.33545341554092
Source of the keplerian elements: AFSPC